Regional Weather Roundup
Issued by NWS

Home | Current Version | Previous Version | Graphics & Text | Print | Product List | Glossary On
Versions: 1 2 3 4 5 6 7 8 9 10 11 12 13 14 15 16 17 18 19 20 21 22 23 24 25 26 27 28 29 30 31 32 33 34 35 36 37 38 39 40 41 42 43 44 45 46 47 48 49 50
000
ASUS43 KIND 212259
RWRIN

WEATHER ROUNDUP FOR INDIANA
NATIONAL WEATHER SERVICE INDIANAPOLIS IN
700 PM EDT THU AUG 21 2014

NOTE: "FAIR" INDICATES FEW OR NO CLOUDS BELOW 12,000 FEET WITH NO
SIGNIFICANT WEATHER AND/OR OBSTRUCTIONS TO VISIBILITY.

* - STATION DOES NOT REPORT WEATHER SUCH AS PRECIPITATION OR FOG.

+ - STATION NOT QUALITY CONTROLLED BY THE NATIONAL WEATHER SERVICE.
    USE DATA WITH CAUTION...ESPECIALLY DEWPOINT AND RELATIVE
    HUMIDITY OBSERVATIONS.

INZ001>003-010>013-019-020-220000-
NORTHWEST INDIANA

CITY           SKY/WX    TMP DP  RH WIND       PRES   REMARKS
GARY /AIRPORT/ LGT RAIN  75  73  94 E8        29.94F
KNOX *+        CLOUDY    76  72  86 E8        29.93S
MONTICELLO +   PTSUNNY   83  76  79 S7        29.92F
VALPARAISO     RAIN      72  72 100 S6        29.96R FOG

$$

LMZ046-743>745-220000-
SOUTHERN LAKE MICHIGAN

STATION/POSITION TIME  TEMP WIND        PRES
                       AIR  DIR/SP/G
                 (UTC) (F)  (DEG/KT/KT) (MB)
BURNS HARBOR     2200   74   70/  6/  8   N/A
MICHIGAN CITY    2200   76   70/  3/  5   N/A

$$

INZ004-005-014>016-021>024-220000-
NORTH CENTRAL INDIANA

CITY           SKY/WX    TMP DP  RH WIND       PRES   REMARKS
GOSHEN         LGT RAIN  79  71  76 CALM      29.98R
SOUTH BEND     RAIN      76  72  87 E5        29.97R FOG
WARSAW +       PTSUNNY   77  72  83 CALM      29.97S

$$

INZ006>009-017-018-025>027-220000-
NORTHEAST INDIANA

CITY           SKY/WX    TMP DP  RH WIND       PRES   REMARKS
ANGOLA *+      SUNNY     81  70  69 SW7       29.98S
FORT WAYNE     PTSUNNY   77  71  82 S6        29.99F

$$

INZ028-029-035-036-043>045-051>053-220000-
WEST CENTRAL INDIANA

CITY           SKY/WX    TMP DP  RH WIND       PRES   REMARKS
GREENCASTLE +  MOSUNNY   84  75  74 S3        29.97F
LAFAYETTE      MOSUNNY   84  75  74 SW7       29.92F
TERRE HAUTE    MOSUNNY   87  76  69 S12       29.95F HX  97

$$

INZ030>032-037>040-046>048-054>057-064-065-220000-
CENTRAL INDIANA

CITY           SKY/WX    TMP DP  RH WIND       PRES   REMARKS
FRANKFORT +    PTSUNNY   85  75  73 S7        29.97S
INDIANAPOLIS   PTSUNNY   84  73  69 SW14      29.96F
-EAGLE CREEK   PTSUNNY   86  73  65 SW6       29.96F
KOKOMO *+      PTSUNNY   82  75  78 S8        29.95F
MT COMFORT *+  PTSUNNY   82  73  74 SW6       29.98F
SHELBYVILLE    MOSUNNY   85  74  69 S8        29.97F

$$

INZ033-034-041-042-049-050-058-059-220000-
EAST CENTRAL INDIANA

CITY           SKY/WX    TMP DP  RH WIND       PRES   REMARKS
MUNCIE         CLOUDY    83  72  69 S9        29.97F

$$

INZ060-061-067>069-081>083-085>088-220000-
SOUTHWEST INDIANA

CITY           SKY/WX    TMP DP  RH WIND       PRES   REMARKS
EVANSVILLE     MOSUNNY   89  71  55 SW8       29.99S HX  95

$$

INZ062-063-066-070>080-084-089>092-220000-
SOUTH CENTRAL AND SOUTHEAST INDIANA

CITY           SKY/WX    TMP DP  RH WIND       PRES   REMARKS
BLOOMINGTON    PTSUNNY   85  75  72 SW6       29.98F
SEYMOUR +      MOSUNNY   81  61  50 SW6       29.98

$$




USA.gov is the U.S. government's official web portal to all federal, state and local government web resources and services.